Regional Weather Roundup
Issued by NWS

Home | Current Version | Previous Version | Text Only | Print | Product List | Glossary Off
Versions: 1 2 3 4 5 6 7 8 9 10 11 12 13 14 15 16 17 18 19 20 21 22 23 24 25 26 27 28 29 30 31 32 33 34 35 36 37 38 39 40 41 42 43 44 45 46 47 48 49 50

000
ASUS43 KLSX 212007
RWRMO

WEATHER SUMMARY FOR MISSOURI
NATIONAL WEATHER SERVICE SPRINGFIELD MO
300 PM CDT THU SEP 21 2017

NOTE: "FAIR" INDICATES FEW OR NO CLOUDS BELOW 12,000 FEET WITH NO
       SIGNIFICANT WEATHER AND/OR OBSTRUCTIONS TO VISIBILITY.
       CURRENT SKY AND/OR WEATHER CONDITIONS ARE NOT AVAILABLE FOR
       CHILLICOTHE AND FARMINGTON.

MOZ001>031-035>038-043-044-053-054-212100-
...NORTHERN AND WESTERN MISSOURI...

CITY           SKY/WX    TMP DP  RH WIND       PRES   REMARKS
KANSAS CTY INT MOSUNNY   89  73  59 S17G31    29.86F HX  97
KANSAS C DTWN  MOSUNNY   93  74  53 SE13G22   29.85F HX 103
LEE`S SUMMIT   SUNNY     91  73  55 S22G28    29.89F HX  99
ST JOSEPH      SUNNY     93  74  53 S20G29    29.83F HX 103
CHILLICOTHE      N/A     92  72  51 SE12G22   29.89F HX  99
KIRKSVILLE     MOSUNNY   90  72  55 SE16      29.94F HX  97

$$
MOZ066>068-077>081-088>096-101>105-212100-
...SOUTHWEST MISSOURI...

CITY           SKY/WX    TMP DP  RH WIND       PRES   REMARKS
SPRINGFIELD    SUNNY     92  69  47 S13G23    29.96F HX  97
JOPLIN         MOSUNNY   90  75  61 S14G22    29.93F HX 100
BRANSON        MOSUNNY   91  66  43 S14G20    30.00F HX  94

$$
MOZ032>034-039>042-045>050-055>058-069>072-212100-
...CENTRAL MISSOURI...

CITY           SKY/WX    TMP DP  RH WIND       PRES   REMARKS
COLUMBIA       MOSUNNY   91  72  53 S12       29.96F HX  98
JEFFERSON CITY MOSUNNY   90  70  51 S9        29.94F HX  95
ROLLA          MOSUNNY   93  68  43 S13G21    29.99F HX  97
SEDALIA        SUNNY     92  74  55 S15       29.95F HX 101
WHITEMAN AFB   MOSUNNY   90  74  58 S13G20    29.91F HX  99
WARRENSBURG    MOSUNNY   90  70  51 SE17G25   29.91F HX  95
OSAGE BEACH    MOSUNNY   91  71  51 S10       29.96F HX  97

$$
MOZ051-052-059>065-212100-
...EAST CENTRAL MISSOURI...

CITY           SKY/WX    TMP DP  RH WIND       PRES   REMARKS
ST LOUIS INTL  CLOUDY    88  72  58 E12       29.99F HX  94
SPIRIT OF STL  CLOUDY    87  75  67 E10       29.96F HX  96
ST CHARLES     CLOUDY    88  71  57 SE10      29.97F HX  94

$$
MOZ072>076-082>087-097>100-106>115-212100-
...SOUTH CENTRAL AND SOUTHEAST MISSOURI...

CITY           SKY/WX    TMP DP  RH WIND       PRES   REMARKS
CAPE GIRARDEAU MOSUNNY   91  69  48 SE8       29.99F HX  96
FARMINGTON     MOSUNNY   92  70  48 S9        30.02F HX  97
POPLAR BLUFF   MOSUNNY   92  69  47 VRB6      29.99F HX  97
WEST PLAINS    MOSUNNY   91  64  40 SE12      30.02F HX  92

$$



USA.gov is the U.S. government's official web portal to all federal, state and local government web resources and services.